STARLINK-36691

Last updated on Sat Mar 14 2026 00:02:06 GMT+0000 (Coordinated Universal Time)

1 67735U 26026Q 26072.58334491 .00097281 00000+0 29832-2 0 9990 2 67735 97.2849 127.1705 0001434 76.4327 337.6348 15.33379152 6079
UTC large
Height (km)
Speed (km/s)
/
Latitude / Longitude
Inclination (degrees)
Orbital Period (minutes)
Azimuth
Elevation
Range (km)
Doppler Factor

Next 0 passes for location: London (51.5072 / 0.1276)

Sorry there are no passes over London.